Time,TemperatureF,DewpointF,PressureIn,WindDirection,WindDirectionDegrees,WindSpeedMPH,WindSpeedGustMPH,Humidity,HourlyPrecipIn,Conditions,Clouds,dailyrainin,SoftwareType,DateUTC
2013-09-27 00:22:00,34.0,-99.9,-100.00,North,-999,-999.0,-999.0,-999,0.00,,,0.13,,2013-09-27 06:22:00,
2013-09-27 00:32:00,34.0,-99.9,-100.00,North,-999,-999.0,-999.0,-999,0.00,,,0.13,,2013-09-27 06:32:00,
2013-09-27 00:43:00,34.0,-99.9,-100.00,North,-999,-999.0,-999.0,-999,0.00,,,0.13,,2013-09-27 06:43:00,
2013-09-27 01:22:00,34.0,-99.9,-100.00,North,-999,-999.0,-999.0,-999,0.00,,,0.13,,2013-09-27 07:22:00,
2013-09-27 01:32:00,34.0,-99.9,-100.00,North,-999,-999.0,-999.0,-999,0.00,,,0.13,,2013-09-27 07:32:00,
2013-09-27 01:44:00,34.0,-99.9,-100.00,North,-999,-999.0,-999.0,-999,0.00,,,0.13,,2013-09-27 07:44:00,
2013-09-27 02:22:00,33.0,-99.9,-100.00,North,-999,-999.0,-999.0,-999,0.00,,,0.13,,2013-09-27 08:22:00,
2013-09-27 02:32:00,33.0,-99.9,-100.00,North,-999,-999.0,-999.0,-999,0.00,,,0.13,,2013-09-27 08:32:00,
2013-09-27 02:42:00,33.0,-99.9,-100.00,North,-999,-999.0,-999.0,-999,0.00,,,0.13,,2013-09-27 08:42:00,
2013-09-27 03:22:00,33.0,-99.9,-100.00,North,-999,-999.0,-999.0,-999,0.01,,,0.14,,2013-09-27 09:22:00,
2013-09-27 03:33:00,33.0,-99.9,-100.00,North,-999,-999.0,-999.0,-999,0.01,,,0.14,,2013-09-27 09:33:00,
2013-09-27 03:44:00,33.0,-99.9,-100.00,North,-999,-999.0,-999.0,-999,0.01,,,0.14,,2013-09-27 09:44:00,
2013-09-27 04:23:00,33.0,-99.9,-100.00,North,-999,-999.0,-999.0,-999,0.00,,,0.14,,2013-09-27 10:23:00,
2013-09-27 04:33:00,33.0,-99.9,-100.00,North,-999,-999.0,-999.0,-999,0.00,,,0.14,,2013-09-27 10:33:00,
2013-09-27 04:43:00,33.0,-99.9,-100.00,North,-999,-999.0,-999.0,-999,0.00,,,0.14,,2013-09-27 10:43:00,
2013-09-27 05:22:00,33.0,-99.9,-100.00,North,-999,-999.0,-999.0,-999,0.00,,,0.14,,2013-09-27 11:22:00,
2013-09-27 05:33:00,33.0,-99.9,-100.00,North,-999,-999.0,-999.0,-999,0.00,,,0.14,,2013-09-27 11:33:00,
2013-09-27 05:43:00,33.0,-99.9,-100.00,North,-999,-999.0,-999.0,-999,0.00,,,0.14,,2013-09-27 11:43:00,
2013-09-27 06:22:00,33.0,-99.9,-100.00,North,-999,-999.0,-999.0,-999,0.00,,,0.14,,2013-09-27 12:22:00,
2013-09-27 06:32:00,33.0,-99.9,-100.00,North,-999,-999.0,-999.0,-999,0.00,,,0.14,,2013-09-27 12:32:00,
2013-09-27 06:42:00,33.0,-99.9,-100.00,North,-999,-999.0,-999.0,-999,0.00,,,0.14,,2013-09-27 12:42:00,
2013-09-27 07:22:00,32.0,-99.9,-100.00,North,-999,-999.0,-999.0,-999,0.02,,,0.16,,2013-09-27 13:22:00,
2013-09-27 07:32:00,32.0,-99.9,-100.00,North,-999,-999.0,-999.0,-999,0.02,,,0.16,,2013-09-27 13:32:00,
2013-09-27 07:42:00,32.0,-99.9,-100.00,North,-999,-999.0,-999.0,-999,0.02,,,0.16,,2013-09-27 13:42:00,
2013-09-27 08:22:00,32.0,-99.9,-100.00,North,-999,-999.0,-999.0,-999,0.01,,,0.17,,2013-09-27 14:22:00,
2013-09-27 08:32:00,32.0,-99.9,-100.00,North,-999,-999.0,-999.0,-999,0.01,,,0.17,,2013-09-27 14:32:00,
2013-09-27 08:42:00,32.0,-99.9,-100.00,North,-999,-999.0,-999.0,-999,0.01,,,0.17,,2013-09-27 14:42:00,
2013-09-27 09:22:00,32.0,-99.9,-100.00,North,-999,-999.0,-999.0,-999,0.02,,,0.19,,2013-09-27 15:22:00,
2013-09-27 09:33:00,32.0,-99.9,-100.00,North,-999,-999.0,-999.0,-999,0.02,,,0.19,,2013-09-27 15:33:00,
2013-09-27 09:44:00,32.0,-99.9,-100.00,North,-999,-999.0,-999.0,-999,0.02,,,0.19,,2013-09-27 15:44:00,
2013-09-27 10:25:00,34.0,-99.9,-100.00,North,-999,-999.0,-999.0,-999,0.05,,,0.24,,2013-09-27 16:25:00,
2013-09-27 10:34:00,34.0,-99.9,-100.00,North,-999,-999.0,-999.0,-999,0.05,,,0.24,,2013-09-27 16:34:00,
2013-09-27 10:44:00,34.0,-99.9,-100.00,North,-999,-999.0,-999.0,-999,0.05,,,0.24,,2013-09-27 16:44:00,
2013-09-27 11:23:00,33.0,-99.9,-100.00,North,-999,-999.0,-999.0,-999,0.04,,,0.28,,2013-09-27 17:23:00,
2013-09-27 11:34:00,33.0,-99.9,-100.00,North,-999,-999.0,-999.0,-999,0.04,,,0.28,,2013-09-27 17:34:00,
2013-09-27 11:43:00,33.0,-99.9,-100.00,North,-999,-999.0,-999.0,-999,0.04,,,0.28,,2013-09-27 17:43:00,
2013-09-27 12:22:00,35.0,-99.9,-100.00,North,-999,-999.0,-999.0,-999,0.00,,,0.28,,2013-09-27 18:22:00,
2013-09-27 12:33:00,35.0,-99.9,-100.00,North,-999,-999.0,-999.0,-999,0.00,,,0.28,,2013-09-27 18:33:00,
2013-09-27 12:44:00,35.0,-99.9,-100.00,North,-999,-999.0,-999.0,-999,0.00,,,0.28,,2013-09-27 18:44:00,
2013-09-27 13:23:00,34.0,-99.9,-100.00,North,-999,-999.0,-999.0,-999,0.01,,,0.26,,2013-09-27 19:23:00,
2013-09-27 13:32:00,34.0,-99.9,-100.00,North,-999,-999.0,-999.0,-999,0.01,,,0.26,,2013-09-27 19:32:00,
2013-09-27 13:43:00,34.0,-99.9,-100.00,North,-999,-999.0,-999.0,-999,0.01,,,0.26,,2013-09-27 19:43:00,
2013-09-27 14:22:00,35.0,-99.9,-100.00,North,-999,-999.0,-999.0,-999,0.00,,,0.26,,2013-09-27 20:22:00,
2013-09-27 14:32:00,35.0,-99.9,-100.00,North,-999,-999.0,-999.0,-999,0.00,,,0.26,,2013-09-27 20:32:00,
2013-09-27 14:43:00,35.0,-99.9,-100.00,North,-999,-999.0,-999.0,-999,0.00,,,0.26,,2013-09-27 20:43:00,
2013-09-27 15:22:00,36.0,-99.9,-100.00,North,-999,-999.0,-999.0,-999,0.00,,,0.26,,2013-09-27 21:22:00,
2013-09-27 15:34:00,36.0,-99.9,-100.00,North,-999,-999.0,-999.0,-999,0.00,,,0.26,,2013-09-27 21:34:00,
2013-09-27 15:44:00,36.0,-99.9,-100.00,North,-999,-999.0,-999.0,-999,0.00,,,0.26,,2013-09-27 21:44:00,
2013-09-27 16:24:00,37.0,-99.9,-100.00,North,-999,-999.0,-999.0,-999,-99.99,,,0.25,,2013-09-27 22:24:00,
2013-09-27 16:34:00,37.0,-99.9,-100.00,North,-999,-999.0,-999.0,-999,-99.99,,,0.25,,2013-09-27 22:34:00,
2013-09-27 16:43:00,37.0,-99.9,-100.00,North,-999,-999.0,-999.0,-999,-99.99,,,0.25,,2013-09-27 22:43:00,
2013-09-27 17:22:00,39.0,-99.9,-100.00,North,-999,-999.0,-999.0,-999,0.00,,,0.23,,2013-09-27 23:22:00,
2013-09-27 17:34:00,39.0,-99.9,-100.00,North,-999,-999.0,-999.0,-999,0.00,,,0.23,,2013-09-27 23:34:00,
2013-09-27 17:43:00,39.0,-99.9,-100.00,North,-999,-999.0,-999.0,-999,0.00,,,0.23,,2013-09-27 23:43:00,
2013-09-27 18:22:00,38.0,-99.9,-100.00,North,-999,-999.0,-999.0,-999,0.01,,,0.22,,2013-09-28 00:22:00,
2013-09-27 18:33:00,38.0,-99.9,-100.00,North,-999,-999.0,-999.0,-999,0.01,,,0.22,,2013-09-28 00:33:00,
2013-09-27 18:42:00,38.0,-99.9,-100.00,North,-999,-999.0,-999.0,-999,0.01,,,0.22,,2013-09-28 00:42:00,
2013-09-27 19:22:00,39.0,-99.9,-100.00,North,-999,-999.0,-999.0,-999,0.00,,,0.20,,2013-09-28 01:22:00,
2013-09-27 19:33:00,39.0,-99.9,-100.00,North,-999,-999.0,-999.0,-999,0.00,,,0.20,,2013-09-28 01:33:00,
2013-09-27 19:42:00,39.0,-99.9,-100.00,North,-999,-999.0,-999.0,-999,0.00,,,0.20,,2013-09-28 01:42:00,
2013-09-27 20:22:00,36.0,-99.9,-100.00,North,-999,-999.0,-999.0,-999,0.03,,,0.20,,2013-09-28 02:22:00,
2013-09-27 20:32:00,36.0,-99.9,-100.00,North,-999,-999.0,-999.0,-999,0.03,,,0.20,,2013-09-28 02:32:00,
2013-09-27 20:42:00,36.0,-99.9,-100.00,North,-999,-999.0,-999.0,-999,0.03,,,0.20,,2013-09-28 02:42:00,
2013-09-27 20:45:00,36.0,-99.9,-100.00,North,-999,-999.0,-999.0,-999,-99.99,,,0.19,,2013-09-28 02:45:00,
2013-09-27 21:22:00,36.0,-99.9,-100.00,North,-999,-999.0,-999.0,-999,-99.99,,,0.19,,2013-09-28 03:22:00,
2013-09-27 21:35:00,36.0,-99.9,-100.00,North,-999,-999.0,-999.0,-999,-99.99,,,0.19,,2013-09-28 03:35:00,
2013-09-27 22:25:00,36.0,-99.9,-100.00,North,-999,-999.0,-999.0,-999,0.00,,,0.18,,2013-09-28 04:25:00,
2013-09-27 22:34:00,36.0,-99.9,-100.00,North,-999,-999.0,-999.0,-999,0.00,,,0.18,,2013-09-28 04:34:00,
2013-09-27 22:44:00,36.0,-99.9,-100.00,North,-999,-999.0,-999.0,-999,0.00,,,0.18,,2013-09-28 04:44:00,
2013-09-27 23:22:00,37.0,-99.9,-100.00,North,-999,-999.0,-999.0,-999,0.00,,,0.18,,2013-09-28 05:22:00,
2013-09-27 23:34:00,37.0,-99.9,-100.00,North,-999,-999.0,-999.0,-999,0.00,,,0.18,,2013-09-28 05:34:00,
2013-09-27 23:43:00,37.0,-99.9,-100.00,North,-999,-999.0,-999.0,-999,0.00,,,0.18,,2013-09-28 05:43:00,